Location: Unspecified
(35.7250°N, 0.0000°E)
Time: 21:07:56
(UTC+00:00)

Courier 1B Rocket - Pass Details

Date: 22 June 2019
Orbit: 920 x 1202 km, 28.2° (Epoch: 16 July)

Event Time Altitude Azimuth Distance (km) Brightness Sun altitude
Exits shadow 02:01:05 13° 143° (SE) 2,664 7.1 -24.5°
Drops below altitude 10° 02:03:02 10° 127° (SE) 2,839 7.4 -24.3°
Sets 02:07:20 0° 101° (E) 3,726 8.3 -23.8°
